星链-5812 (STARLINK-5812 )

导读 | 豆包AI

STARLINK-5812是美国太空探索技术公司星链星座的组成卫星,于2023年3月3日发射入轨。星链星座旨在构建全球覆盖的卫星互联网系统,为偏远地区、海上及航空场景提供网络服务。这类低轨卫星批量部署,既推动全球互联网普惠化发展,也引发了太空轨道资源竞争、天文观测干扰等争议。

基本信息
目录编号:
55774
目录名称:
STARLINK-5812
国际标识:
2023-028AK
轨道中心:
EARTH
卫星名称:
星链-5812
卫星全名:
星链-5812 (STARLINK-5812 )
卫星状态:
在轨 (已飞行1108 天)
发射日期:
2023-03-03 UTC
国别 :
美国 (US)
星等 :
--
轨道信息
数据来源 国际轨道数据 AOE轨道数据
星历时间 2026-03-15T23:03:50+0800
6小时前
查看轨道信息
2026-03-13T06:00:00+0800
2天前
查看轨道信息
半长轴 6950.197km 6950.189km
偏心率 0.0003545 0.0002981
轨道倾角 70.000° 70.001°
近地点辐角 268.300° 268.490°
升交点赤经 209.436° 216.273°
平近点角 91.775° 232.663°
近地点 569.596km 569.98km
远地点 574.524km 574.124km
周期 96.107分钟 96.107分钟
每日圈数 14.983287 14.983315
详细信息
固有亮度:
5
最大亮度:
2.5
卫星平台:
Starlink v1.5
覆盖范围:
全球
运营商:
太空探索技术公司
运营商所在国:
美国
制造商(研发单位):
太空探索技术公司
制造商所在国:
美国
使用方式:
暂无
卫星简介
星链(Starlink)计划是由太空探索技术公司(SpaceX)提出的一个巨型低轨卫星互联网星座项目,计划在2019年至2024年间在太空搭建由约1.2万颗卫星组成的“星链”网络,其中1584颗将部署在地球上空550千米处的近地轨道,并从2020年开始工作。该卫星仍在工作。
2D轨道图
3D轨道图
轨道高度分析图
轨道倾角分析图
轨道综合分析图
查看轨道综合分析图